QFA7354 YMML-YSSY

Flight info

Callsign QFA7354
Flight time 1h 5m
Altitude 37000
Route DOSEL2/34 DOSEL Y59 RIVET
Aircraft A20N/M-SDE2E3FGHIRWXY/LB1

Departure

Time 2026-05-04 10:31
Airport Melbourne Airport (YMML)

Arrival

Time 2026-05-04 11:36
Airport Sydney Kingsford Smith International Airport (YSSY)
Time Latitude Longitude Altitude Speed Heading
2026-05-04 09:52 -37.66729 144.85286 393 ft 0 kts 262°
2026-05-04 10:12 -37.66728 144.85291 395 ft 2 kts 263°
2026-05-04 10:12 -37.66727 144.85306 395 ft 2 kts 263°
2026-05-04 10:13 -37.66726 144.85320 393 ft 2 kts 264°
2026-05-04 10:13 -37.66723 144.85344 394 ft 3 kts 276°
2026-05-04 10:13 -37.66735 144.85370 393 ft 4 kts 331°
2026-05-04 10:13 -37.66743 144.85375 393 ft 0 kts 349°
2026-05-04 10:17 -37.66740 144.85374 393 ft 1 kts 349°
2026-05-04 10:17 -37.66726 144.85372 393 ft 3 kts 351°
2026-05-04 10:19 -37.66581 144.85184 401 ft 10 kts 259°
2026-05-04 10:19 -37.66591 144.85103 402 ft 5 kts 263°
2026-05-04 10:19 -37.66585 144.85071 403 ft 0 kts 288°
2026-05-04 10:19 -37.66582 144.85057 403 ft 3 kts 290°
2026-05-04 10:20 -37.66574 144.85023 404 ft 5 kts 282°
2026-05-04 10:20 -37.66575 144.84966 404 ft 8 kts 266°
2026-05-04 10:20 -37.66586 144.84878 404 ft 12 kts 256°
2026-05-04 10:20 -37.66626 144.84767 402 ft 17 kts 240°
2026-05-04 10:21 -37.66651 144.84623 400 ft 15 kts 262°
2026-05-04 10:21 -37.66665 144.84510 398 ft 7 kts 262°
2026-05-04 10:21 -37.66675 144.84424 397 ft 12 kts 261°
2026-05-04 10:21 -37.66685 144.84338 397 ft 7 kts 262°
2026-05-04 10:22 -37.66693 144.84264 394 ft 0 kts 261°
2026-05-04 10:22 -37.66694 144.84263 396 ft 1 kts 261°
2026-05-04 10:23 -37.66699 144.84218 396 ft 9 kts 261°
2026-05-04 10:23 -37.66711 144.84120 395 ft 14 kts 261°
2026-05-04 10:25 -37.67403 144.84097 373 ft 17 kts 172°
2026-05-04 10:25 -37.67534 144.84122 369 ft 16 kts 172°
2026-05-04 10:25 -37.67651 144.84143 368 ft 17 kts 172°
2026-05-04 10:25 -37.67750 144.84162 363 ft 11 kts 171°
2026-05-04 10:26 -37.67805 144.84172 361 ft 0 kts 172°
2026-05-04 10:26 -37.67814 144.84174 364 ft 5 kts 172°
2026-05-04 10:26 -37.67862 144.84152 366 ft 10 kts 234°
2026-05-04 10:27 -37.67872 144.84116 364 ft 0 kts 261°
2026-05-04 10:29 -37.67873 144.84115 363 ft 1 kts 261°
2026-05-04 10:29 -37.67879 144.84060 360 ft 12 kts 261°
2026-05-04 10:29 -37.67859 144.83974 362 ft 10 kts 334°
2026-05-04 10:29 -37.67814 144.83957 362 ft 0 kts 350°
2026-05-04 10:30 -37.67752 144.83945 359 ft 36 kts 352°
2026-05-04 10:30 -37.67285 144.83860 376 ft 96 kts 352°
2026-05-04 10:30 -37.66462 144.83710 432 ft 138 kts 352°
2026-05-04 10:30 -37.65540 144.83544 1031 ft 130 kts 351°
2026-05-04 10:31 -37.64650 144.83383 1632 ft 133 kts 346°
2026-05-04 10:31 -37.63736 144.83209 2198 ft 136 kts 345°
2026-05-04 10:32 -37.55572 144.84415 5673 ft 273 kts 21°
2026-05-04 10:33 -37.53859 144.85495 6709 ft 276 kts 21°
2026-05-04 10:33 -37.52125 144.86575 7770 ft 281 kts 21°
2026-05-04 10:33 -37.50347 144.87661 8782 ft 287 kts 21°
2026-05-04 10:33 -37.48529 144.88759 9787 ft 292 kts 21°
2026-05-04 10:34 -37.47310 144.89494 10425 ft 297 kts 21°
2026-05-04 10:34 -37.45378 144.90685 10883 ft 323 kts 25°
2026-05-04 10:34 -37.43480 144.92414 11328 ft 351 kts 40°
2026-05-04 10:34 -37.41883 144.94799 12146 ft 362 kts 52°
2026-05-04 10:35 -37.40433 144.97418 13064 ft 366 kts 52°
2026-05-04 10:35 -37.38474 145.00913 14189 ft 374 kts 52°
2026-05-04 10:35 -37.37456 145.02721 14783 ft 375 kts 51°
2026-05-04 10:35 -37.35940 145.05403 15638 ft 378 kts 51°
2026-05-04 10:36 -37.34405 145.08112 16445 ft 383 kts 51°
2026-05-04 10:36 -37.32872 145.10814 17225 ft 387 kts 51°
2026-05-04 10:36 -37.31303 145.13579 18041 ft 391 kts 51°
2026-05-04 10:36 -37.29714 145.16377 18778 ft 395 kts 51°
2026-05-04 10:37 -37.28113 145.19194 19504 ft 398 kts 51°
2026-05-04 10:37 -37.26501 145.22030 20210 ft 401 kts 51°
2026-05-04 10:37 -37.24872 145.24892 20905 ft 404 kts 50°
2026-05-04 10:37 -37.23231 145.27774 21599 ft 407 kts 50°
2026-05-04 10:39 -37.13097 145.45510 24004 ft 423 kts 50°
2026-05-04 10:39 -37.11400 145.48467 24004 ft 423 kts 50°
2026-05-04 10:39 -37.09686 145.51453 24003 ft 423 kts 50°
2026-05-04 10:40 -37.07967 145.54446 24009 ft 423 kts 50°
2026-05-04 10:40 -37.06248 145.57435 24009 ft 423 kts 50°
2026-05-04 10:40 -37.04528 145.60423 24013 ft 423 kts 50°
2026-05-04 10:40 -37.02804 145.63416 24012 ft 423 kts 50°
2026-05-04 10:41 -37.01085 145.66395 24007 ft 424 kts 50°
2026-05-04 10:41 -36.99357 145.69387 24017 ft 424 kts 50°
2026-05-04 10:41 -36.97627 145.72380 24017 ft 424 kts 50°
2026-05-04 10:41 -36.95900 145.75367 24017 ft 424 kts 50°
2026-05-04 10:42 -36.94170 145.78356 24016 ft 424 kts 50°
2026-05-04 10:42 -36.92444 145.81335 24025 ft 423 kts 49°
2026-05-04 10:42 -36.90741 145.84271 24021 ft 423 kts 49°
2026-05-04 10:42 -36.89015 145.87247 24023 ft 423 kts 49°
2026-05-04 10:43 -36.87290 145.90222 24027 ft 423 kts 48°
2026-05-04 10:44 -36.75006 146.11330 26783 ft 440 kts 45°
2026-05-04 10:45 -36.73194 146.14429 27222 ft 444 kts 45°
2026-05-04 10:45 -36.71368 146.17549 27694 ft 447 kts 45°
2026-05-04 10:45 -36.69530 146.20688 28140 ft 451 kts 44°
2026-05-04 10:45 -36.67672 146.23855 28571 ft 454 kts 44°
2026-05-04 10:46 -36.65798 146.27045 28990 ft 458 kts 44°
2026-05-04 10:46 -36.63938 146.30212 29387 ft 461 kts 44°
2026-05-04 10:46 -36.62039 146.33441 29806 ft 462 kts 44°
2026-05-04 10:46 -36.60137 146.36671 30201 ft 465 kts 44°
2026-05-04 10:47 -36.58219 146.39923 30497 ft 469 kts 44°
2026-05-04 10:47 -36.56279 146.43209 30816 ft 472 kts 44°
2026-05-04 10:47 -36.54343 146.46486 31134 ft 475 kts 44°
2026-05-04 10:47 -36.52381 146.49807 31521 ft 477 kts 44°
2026-05-04 10:49 -36.38529 146.73149 34162 ft 483 kts 45°
2026-05-04 10:49 -36.36532 146.76501 34478 ft 483 kts 45°
2026-05-04 10:50 -36.34528 146.79861 34759 ft 484 kts 45°
2026-05-04 10:51 -36.20482 147.03319 36762 ft 486 kts 46°
2026-05-04 10:52 -36.18464 147.06679 37003 ft 487 kts 46°
2026-05-04 10:52 -36.14428 147.13388 37066 ft 483 kts 46°
2026-05-04 10:54 -35.98378 147.39927 37071 ft 481 kts 45°
2026-05-04 10:56 -35.82400 147.66143 37084 ft 481 kts 45°
2026-05-04 10:57 -35.78372 147.72726 37097 ft 483 kts 45°
2026-05-04 10:57 -35.74320 147.79332 37090 ft 483 kts 45°
2026-05-04 10:58 -35.70276 147.85914 37095 ft 482 kts 44°
2026-05-04 10:58 -35.66254 147.92444 37104 ft 482 kts 44°
2026-05-04 10:59 -35.62202 147.99014 37086 ft 482 kts 44°
2026-05-04 10:59 -35.58141 148.05583 37106 ft 483 kts 44°
2026-05-04 11:00 -35.54082 148.12139 36987 ft 480 kts 44°
2026-05-04 11:01 -35.39333 148.33732 36110 ft 451 kts 21°
2026-05-04 11:02 -35.36576 148.35383 36114 ft 439 kts 13°
2026-05-04 11:05 -34.94349 148.56627 36097 ft 443 kts 17°
2026-05-04 11:06 -34.89042 148.60568 36110 ft 453 kts 23°
2026-05-04 11:06 -34.83773 148.64780 36113 ft 454 kts 23°
2026-05-04 11:08 -34.73617 148.88786 34633 ft 524 kts 95°
2026-05-04 11:10 -34.69159 149.17245 30189 ft 485 kts 65°
2026-05-04 11:12 -34.62284 149.44965 30005 ft 488 kts 65°
2026-05-04 11:12 -34.61313 149.48894 29535 ft 484 kts 65°
2026-05-04 11:12 -34.60346 149.52792 28940 ft 480 kts 65°
2026-05-04 11:12 -34.59402 149.56593 28313 ft 475 kts 65°
2026-05-04 11:13 -34.58450 149.60416 27619 ft 471 kts 65°
2026-05-04 11:13 -34.57509 149.64186 27065 ft 464 kts 65°
2026-05-04 11:13 -34.56576 149.67920 26439 ft 460 kts 65°
2026-05-04 11:13 -34.55650 149.71616 25835 ft 456 kts 65°
2026-05-04 11:14 -34.54736 149.75269 25260 ft 451 kts 65°
2026-05-04 11:14 -34.53825 149.78900 24674 ft 447 kts 65°
2026-05-04 11:14 -34.52924 149.82488 24102 ft 443 kts 65°
2026-05-04 11:16 -34.45021 150.04988 19966 ft 400 kts 54°
2026-05-04 11:16 -34.43716 150.07933 19434 ft 394 kts 54°
2026-05-04 11:16 -34.42425 150.10846 18860 ft 391 kts 54°
2026-05-04 11:17 -34.41139 150.13740 18308 ft 388 kts 54°
2026-05-04 11:17 -34.39862 150.16610 17683 ft 385 kts 54°
2026-05-04 11:19 -34.31260 150.35890 13783 ft 362 kts 55°
2026-05-04 11:19 -34.30070 150.38548 13208 ft 359 kts 55°
2026-05-04 11:19 -34.28878 150.41205 12582 ft 358 kts 55°
2026-05-04 11:19 -34.27700 150.43834 12076 ft 353 kts 55°
2026-05-04 11:20 -34.26537 150.46436 11535 ft 350 kts 56°
2026-05-04 11:20 -34.25389 150.49002 11104 ft 345 kts 56°
2026-05-04 11:20 -34.24252 150.51546 10553 ft 343 kts 56°
2026-05-04 11:20 -34.23124 150.54069 10222 ft 335 kts 56°
2026-05-04 11:22 -34.16142 150.69640 7947 ft 291 kts 56°
2026-05-04 11:22 -34.15178 150.71782 7548 ft 289 kts 56°
2026-05-04 11:23 -34.14228 150.73889 7141 ft 289 kts 56°
2026-05-04 11:23 -34.13270 150.76011 6785 ft 286 kts 56°
2026-05-04 11:24 -34.07586 150.88622 5965 ft 284 kts 56°
2026-05-04 11:25 -34.06644 150.90716 5963 ft 285 kts 56°
2026-05-04 11:25 -34.05694 150.92819 5969 ft 286 kts 56°
2026-05-04 11:25 -34.04741 150.94931 5965 ft 287 kts 56°
2026-05-04 11:26 -34.03134 150.99265 5972 ft 293 kts 79°
2026-05-04 11:27 -34.13310 151.09097 5967 ft 292 kts 172°
2026-05-04 11:28 -34.15302 151.09598 5970 ft 292 kts 172°
2026-05-04 11:28 -34.17297 151.10121 5965 ft 295 kts 168°
2026-05-04 11:28 -34.19136 151.11217 5954 ft 298 kts 142°
2026-05-04 11:28 -34.20482 151.13099 5728 ft 297 kts 123°
2026-05-04 11:29 -34.21601 151.15156 5398 ft 296 kts 123°
2026-05-04 11:29 -34.22695 151.17254 5001 ft 294 kts 116°
2026-05-04 11:29 -34.23203 151.19605 4592 ft 288 kts 88°
2026-05-04 11:29 -34.22815 151.21921 4251 ft 277 kts 59°
2026-05-04 11:31 -34.13005 151.22394 3023 ft 218 kts 343°
2026-05-04 11:33 -34.03334 151.19867 1451 ft 165 kts 346°
2026-05-04 11:33 -34.02273 151.19591 1248 ft 146 kts 346°
2026-05-04 11:33 -34.01349 151.19350 1050 ft 126 kts 348°
2026-05-04 11:34 -34.00541 151.19140 888 ft 114 kts 347°
2026-05-04 11:34 -33.99724 151.18927 735 ft 119 kts 348°
2026-05-04 11:34 -33.98929 151.18714 600 ft 118 kts 350°
2026-05-04 11:34 -33.98127 151.18471 417 ft 117 kts 349°
2026-05-04 11:35 -33.97353 151.18290 277 ft 116 kts 351°
2026-05-04 11:35 -33.96565 151.18089 113 ft 116 kts 350°
2026-05-04 11:35 -33.95791 151.17907 28 ft 101 kts 347°
2026-05-04 11:35 -33.95287 151.17772 29 ft 56 kts 347°
2026-05-04 11:36 -33.94930 151.17677 28 ft 50 kts 346°
2026-05-04 11:36 -33.94596 151.17592 30 ft 48 kts 348°
2026-05-04 11:36 -33.94276 151.17507 30 ft 46 kts 348°
2026-05-04 11:36 -33.93989 151.17434 27 ft 29 kts 348°
2026-05-04 11:37 -33.93918 151.17462 27 ft 10 kts 63°
2026-05-04 11:37 -33.93895 151.17544 28 ft 0 kts 75°
2026-05-04 11:37 -33.93895 151.17545 28 ft 0 kts 75°
2026-05-04 11:38 -33.93891 151.17562 28 ft 4 kts 75°
2026-05-04 11:38 -33.93880 151.17607 29 ft 7 kts 74°
2026-05-04 11:38 -33.93863 151.17680 29 ft 10 kts 69°
2026-05-04 11:38 -33.93824 151.17705 29 ft 7 kts
2026-05-04 11:39 -33.93768 151.17693 29 ft 10 kts 348°
2026-05-04 11:39 -33.93691 151.17665 29 ft 13 kts 333°
2026-05-04 11:40 -33.93263 151.17674 30 ft 9 kts 84°
2026-05-04 11:41 -33.93260 151.17706 30 ft 0 kts 84°